Location: Newark
(58.9986°N, 38.5006°E)
Time: 12:44:34
(UTC+00:00)

N. Korean satellite - Pass Details

Date: 13 December 2019
Orbit: 454 x 507 km, 97.2° (Epoch: 24 January)

Event Time Altitude Azimuth Distance (km) Brightness Sun altitude
Rises 03:39:09 0° 15° (NNE) 2,566 10.2 -17.3°
Reaches altitude 10° 03:41:15 10° 16° (NNE) 1,671 9.3 -17.0°
Maximum altitude 03:44:51 87° 106° (ESE) 483 6.5 -16.6°
Drops below altitude 10° 03:48:21 10° 195° (SSW) 1,627 9.3 -16.1°
Sets 03:50:22 0° 196° (SSW) 2,491 10.2 -15.9°
